When you browse on this site, cookies collect data to enhance your experience and personalize the content and advertising you see.
Visit our Privacy Policy to learn more. By continuing to use the site, you agree to this use of cookies and data.
  • Em Portugal
  • Lista de países
  • Para 7 dias
  • Temperatura da água
  • Mapas de satélite
  • Mapa do tempo
  • Widgets de tempo
  • user-avatar
    Iniciar Sessão

    Previsão horária em Maceió

    Hoje, 24 Março, Domingo

    Tempo Temperatura Precipitação Vento Pressão Humidade
    00:00 +28°C° 0.8 mm 4 m/s 759 mmHg 84%
    01:00 +28°C° 0.8 mm 4 m/s 759 mmHg 87%
    02:00 +28°C° 0.1 mm 4 m/s 758 mmHg 87%
    03:00 +27°C° 0.1 mm 4 m/s 758 mmHg 88%
    04:00 +27°C° 0 mm 4 m/s 758 mmHg 89%
    05:00 +27°C° 0 mm 4 m/s 758 mmHg 89%
    06:00 +27°C° 0 mm 4 m/s 758 mmHg 88%
    07:00 +27°C° 0 mm 3 m/s 758 mmHg 87%
    08:00 +29°C° 0 mm 3 m/s 759 mmHg 77%
    09:00 +31°C° 0 mm 3 m/s 759 mmHg 67%
    10:00 +34°C° 0 mm 4 m/s 759 mmHg 56%
    11:00 +36°C° 0 mm 4 m/s 759 mmHg 51%
    12:00 +37°C° 0 mm 4 m/s 758 mmHg 46%
    13:00 +38°C° 0 mm 4 m/s 758 mmHg 41%
    14:00 +39°C° 0 mm 5 m/s 757 mmHg 43%
    15:00 +37°C° 0 mm 5 m/s 757 mmHg 44%
    16:00 +38°C° 0 mm 6 m/s 756 mmHg 46%
    17:00 +35°C° 0 mm 6 m/s 757 mmHg 55%
    18:00 +33°C° 0 mm 6 m/s 757 mmHg 64%
    19:00 +30°C° 0 mm 6 m/s 757 mmHg 73%
    20:00 +30°C° 0 mm 6 m/s 757 mmHg 76%
    21:00 +30°C° 0 mm 5 m/s 758 mmHg 79%
    22:00 +29°C° 0 mm 5 m/s 759 mmHg 82%
    23:00 +29°C° 0 mm 5 m/s 759 mmHg 82%

    Amanhã, 25 Março, Segunda-feira

    Tempo Temperatura Precipitação Vento Pressão Humidade
    00:00 +29°C° 0 mm 5 m/s 758 mmHg 82%
    01:00 +29°C° 0 mm 5 m/s 758 mmHg 83%
    02:00 +28°C° 0 mm 4 m/s 758 mmHg 84%
    03:00 +28°C° 0 mm 4 m/s 757 mmHg 85%
    04:00 +28°C° 0 mm 4 m/s 757 mmHg 86%
    05:00 +28°C° 0 mm 4 m/s 757 mmHg 87%
    06:00 +27°C° 0 mm 3 m/s 757 mmHg 87%
    07:00 +27°C° 0 mm 3 m/s 758 mmHg 88%
    08:00 +29°C° 0 mm 3 m/s 758 mmHg 78%
    09:00 +31°C° 0 mm 3 m/s 758 mmHg 68%
    10:00 +34°C° 0 mm 4 m/s 759 mmHg 58%
    11:00 +35°C° 0 mm 4 m/s 758 mmHg 52%
    12:00 +36°C° 0 mm 4 m/s 758 mmHg 47%
    13:00 +37°C° 0 mm 5 m/s 758 mmHg 41%
    14:00 +37°C° 0 mm 5 m/s 757 mmHg 44%
    15:00 +36°C° 0 mm 5 m/s 756 mmHg 46%
    16:00 +36°C° 0 mm 5 m/s 756 mmHg 48%
    17:00 +34°C° 0 mm 5 m/s 756 mmHg 56%
    18:00 +32°C° 0 mm 5 m/s 756 mmHg 63%
    19:00 +29°C° 0 mm 4 m/s 756 mmHg 71%
    20:00 +29°C° 0 mm 4 m/s 757 mmHg 73%
    21:00 +29°C° 0 mm 4 m/s 757 mmHg 76%
    22:00 +28°C° 0 mm 4 m/s 758 mmHg 78%
    23:00 +28°C° 0 mm 3 m/s 758 mmHg 80%

    Depois de amanhã, 26 Março, Terça-feira

    Tempo Temperatura Precipitação Vento Pressão Humidade
    00:00 +28°C° 0 mm 3 m/s 758 mmHg 82%
    01:00 +28°C° 0 mm 2 m/s 758 mmHg 84%
    02:00 +27°C° 0.1 mm 2 m/s 757 mmHg 86%
    03:00 +27°C° 0.1 mm 2 m/s 757 mmHg 88%
    04:00 +27°C° 0.1 mm 2 m/s 757 mmHg 90%
    05:00 +27°C° 0.1 mm 2 m/s 757 mmHg 89%
    06:00 +27°C° 0.1 mm 2 m/s 757 mmHg 89%
    07:00 +27°C° 0.1 mm 1 m/s 757 mmHg 88%
    08:00 +29°C° 0 mm 2 m/s 758 mmHg 78%
    09:00 +31°C° 0 mm 2 m/s 759 mmHg 68%
    10:00 +34°C° 0 mm 3 m/s 759 mmHg 57%
    11:00 +35°C° 0 mm 3 m/s 759 mmHg 54%
    12:00 +36°C° 0 mm 4 m/s 758 mmHg 52%
    13:00 +36°C° 0 mm 4 m/s 758 mmHg 49%
    14:00 +36°C° 0 mm 4 m/s 757 mmHg 51%
    15:00 +35°C° 0 mm 5 m/s 756 mmHg 54%
    16:00 +35°C° 0 mm 5 m/s 756 mmHg 57%
    17:00 +33°C° 0.2 mm 4 m/s 756 mmHg 63%
    18:00 +32°C° 0.2 mm 4 m/s 757 mmHg 69%
    19:00 +30°C° 0.2 mm 3 m/s 757 mmHg 76%
    20:00 +29°C° 0.3 mm 3 m/s 758 mmHg 79%
    21:00 +29°C° 0.3 mm 3 m/s 758 mmHg 82%
    22:00 +28°C° 0.3 mm 3 m/s 759 mmHg 85%
    23:00 +28°C° 0.4 mm 3 m/s 758 mmHg 86%

    27 Março, Quarta-feira

    Tempo Temperatura Precipitação Vento Pressão Humidade
    00:00 +28°C° 0.4 mm 3 m/s 758 mmHg 87%
    01:00 +28°C° 0.4 mm 3 m/s 758 mmHg 88%
    02:00 +28°C° 0.5 mm 2 m/s 758 mmHg 89%
    03:00 +27°C° 0.5 mm 2 m/s 757 mmHg 89%
    04:00 +27°C° 0.5 mm 2 m/s 757 mmHg 90%
    05:00 +27°C° 0 mm 2 m/s 758 mmHg 89%
    06:00 +27°C° 0 mm 1 m/s 758 mmHg 89%
    07:00 +27°C° 0 mm 1 m/s 758 mmHg 89%
    08:00 +29°C° 0.2 mm 2 m/s 759 mmHg 80%
    09:00 +31°C° 0.2 mm 2 m/s 759 mmHg 71%
    10:00 +34°C° 0.2 mm 3 m/s 760 mmHg 62%
    11:00 +35°C° 0 mm 3 m/s 759 mmHg 57%
    12:00 +36°C° 0 mm 4 m/s 758 mmHg 53%
    13:00 +37°C° 0 mm 4 m/s 758 mmHg 48%
    14:00 +37°C° 0 mm 4 m/s 757 mmHg 50%
    15:00 +36°C° 0 mm 5 m/s 757 mmHg 51%
    16:00 +36°C° 0 mm 5 m/s 757 mmHg 52%
    17:00 +34°C° 0 mm 5 m/s 757 mmHg 59%
    18:00 +33°C° 0 mm 4 m/s 758 mmHg 66%
    19:00 +30°C° 0 mm 4 m/s 758 mmHg 73%
    20:00 +30°C° 0.2 mm 4 m/s 758 mmHg 77%
    21:00 +29°C° 0.2 mm 4 m/s 759 mmHg 81%
    22:00 +29°C° 0.2 mm 4 m/s 759 mmHg 84%
    23:00 +28°C° 2.1 mm 4 m/s 759 mmHg 86%

    28 Março, Quinta-feira

    Tempo Temperatura Precipitação Vento Pressão Humidade
    00:00 +28°C° 2.1 mm 4 m/s 759 mmHg 88%
    01:00 +27°C° 2.1 mm 3 m/s 759 mmHg 90%
    02:00 +27°C° 2.5 mm 3 m/s 758 mmHg 90%
    03:00 +27°C° 2.5 mm 2 m/s 758 mmHg 90%
    04:00 +27°C° 2.5 mm 2 m/s 758 mmHg 91%
    05:00 +27°C° 1 mm 2 m/s 758 mmHg 90%
    06:00 +27°C° 1 mm 1 m/s 759 mmHg 90%
    07:00 +28°C° 1 mm 1 m/s 759 mmHg 89%
    08:00 +29°C° 0.1 mm 1 m/s 759 mmHg 82%
    09:00 +30°C° 0.1 mm 2 m/s 760 mmHg 74%
    10:00 +32°C° 0.1 mm 2 m/s 760 mmHg 66%
    11:00 +33°C° 0.3 mm 3 m/s 760 mmHg 64%
    12:00 +34°C° 0.3 mm 4 m/s 759 mmHg 62%
    13:00 +35°C° 0.3 mm 4 m/s 759 mmHg 60%
    14:00 +34°C° 0.5 mm 4 m/s 758 mmHg 62%
    15:00 +34°C° 0.5 mm 5 m/s 758 mmHg 64%
    16:00 +34°C° 0.5 mm 5 m/s 758 mmHg 66%
    17:00 +32°C° 0 mm 5 m/s 758 mmHg 71%
    18:00 +30°C° 0 mm 4 m/s 758 mmHg 76%
    19:00 +29°C° 0 mm 4 m/s 759 mmHg 81%
    20:00 +29°C° 0.1 mm 4 m/s 759 mmHg 83%
    21:00 +29°C° 0.1 mm 4 m/s 760 mmHg 85%
    22:00 +28°C° 0.1 mm 4 m/s 760 mmHg 88%
    23:00 +28°C° 0.1 mm 4 m/s 760 mmHg 89%

    29 Março, Sexta-feira

    Tempo Temperatura Precipitação Vento Pressão Humidade
    00:00 +28°C° 0.1 mm 3 m/s 759 mmHg 90%
    01:00 +28°C° 0.1 mm 3 m/s 759 mmHg 91%
    02:00 +28°C° 0.1 mm 3 m/s 759 mmHg 91%
    03:00 +27°C° 0.1 mm 3 m/s 758 mmHg 91%
    04:00 +27°C° 0.1 mm 3 m/s 758 mmHg 92%
    05:00 +27°C° 0.1 mm 3 m/s 758 mmHg 91%
    06:00 +28°C° 0.1 mm 3 m/s 759 mmHg 91%
    07:00 +28°C° 0.1 mm 3 m/s 759 mmHg 91%
    08:00 +29°C° 0.3 mm 3 m/s 759 mmHg 84%
    09:00 +30°C° 0.3 mm 3 m/s 760 mmHg 78%
    10:00 +33°C° 0.3 mm 4 m/s 760 mmHg 72%
    11:00 +32°C° 2.8 mm 4 m/s 760 mmHg 74%
    12:00 +32°C° 2.8 mm 4 m/s 759 mmHg 77%
    13:00 +30°C° 2.8 mm 4 m/s 759 mmHg 79%
    14:00 +30°C° 2.9 mm 4 m/s 758 mmHg 81%
    15:00 +29°C° 2.9 mm 4 m/s 758 mmHg 82%
    16:00 +29°C° 2.9 mm 4 m/s 757 mmHg 83%
    17:00 +28°C° 0.7 mm 3 m/s 758 mmHg 85%
    18:00 +28°C° 0.7 mm 3 m/s 758 mmHg 86%
    19:00 +27°C° 0.7 mm 3 m/s 759 mmHg 88%
    20:00 +27°C° 0.1 mm 3 m/s 759 mmHg 88%
    21:00 +27°C° 0.1 mm 3 m/s 759 mmHg 88%
    22:00 +27°C° 0.1 mm 2 m/s 760 mmHg 89%
    23:00 +27°C° 0.6 mm 2 m/s 759 mmHg 89%
    Mostrar mais